Weather History for Chignik, AK

Change the Weather History Date:

Thursday, November 14, 2013

  Actual Average Record
Temperature  
Mean Temperature 50 °F -  
Max Temperature 55 °F 39 °F 55 °F (2013)
Min Temperature 46 °F 33 °F 21 °F (2003)
Degree Days  
Heating Degree Days 14    
Moisture  
Dew Point 45 °F    
Average Humidity 82    
Maximum Humidity 93    
Minimum Humidity 72    
Precipitation  
Precipitation 0.01 in - - ()
Sea Level Pressure  
Sea Level Pressure 30.29 in    
Wind  
Wind Speed 13 mph (WNW)    
Max Wind Speed 25 mph    
Max Gust Speed 36 mph    
Visibility 10 miles    
Events      
Averages and records for this station are not official NWS values.
T = Trace of Precipitation, MM = Missing Value Source: NWS Daily Summary

Daily Weather History Graph

Daily Weather History Graph

Search for Another Location

Airport:

Trip Planner

Search our weather history database for the weather conditions in past years. The results will help you decide how hot, cold, wet, or windy it might be!

Date:

Astronomy

Nov. 14, 2013 Rise Set
Actual Time 9:10 AM AKST 5:24 PM AKST
Civil Twilight 8:27 AM AKST 6:07 PM AKST
Nautical Twilight 7:41 AM AKST 6:53 PM AKST
Astronomical Twilight 6:57 AM AKST 7:37 PM AKST
Moon 4:17 PM AKST (11/14) 5:48 AM AKST (11/14)
Length of Visible Light 9h 39m
Length of Day
8h 14m
Waxing Gibbous, 92% of the Moon is Illuminated
Nov 14
Waxing Gibbous
Nov 17
Full
Nov 25
Last Quarter
Dec 2
New
Dec 9
First Quarter

Hourly Weather History & Observations

Time (AKST) Temp. Windchill Dew Point Humidity Pressure Visibility Wind Dir Wind Speed Gust Speed Precip Events Conditions
12:16 AM 48.2 °F - 44.6 °F 87% 30.39 in 10.0 mi NE 9.2 mph - N/A   Mostly Cloudy
12:36 AM 48.2 °F - 44.6 °F 87% 30.38 in 10.0 mi NE 9.2 mph - N/A   Scattered Clouds
12:56 AM 48.2 °F - 44.6 °F 87% 30.37 in 10.0 mi NE 9.2 mph - N/A   Scattered Clouds
1:16 AM 51.8 °F - 46.4 °F 82% 30.38 in 10.0 mi NE 6.9 mph - N/A   Mostly Cloudy
1:36 AM 53.6 °F - 46.4 °F 77% 30.38 in 10.0 mi WNW 5.8 mph - N/A   Mostly Cloudy
1:56 AM 53.6 °F - 46.4 °F 77% 30.37 in 10.0 mi NNW 6.9 mph - N/A   Mostly Cloudy
2:16 AM 51.8 °F - 46.4 °F 82% 30.37 in 10.0 mi WNW 13.8 mph 21.9 mph N/A   Overcast
2:36 AM 51.8 °F - 46.4 °F 82% 30.37 in 10.0 mi West 13.8 mph 21.9 mph N/A   Mostly Cloudy
2:56 AM 51.8 °F - 46.4 °F 82% 30.37 in 10.0 mi NW 11.5 mph 18.4 mph N/A   Overcast
3:16 AM 53.6 °F - 46.4 °F 77% 30.36 in 10.0 mi NW 12.7 mph 20.7 mph N/A   Overcast
3:36 AM 53.6 °F - 46.4 °F 77% 30.35 in 10.0 mi WNW 15.0 mph 21.9 mph N/A   Overcast
3:56 AM 53.6 °F - 46.4 °F 77% 30.35 in 10.0 mi WNW 11.5 mph 20.7 mph N/A   Overcast
4:16 AM 55.4 °F - 46.4 °F 72% 30.34 in 10.0 mi West 15.0 mph 18.4 mph N/A   Mostly Cloudy
4:36 AM 55.4 °F - 46.4 °F 72% 30.34 in 10.0 mi WNW 12.7 mph 24.2 mph N/A   Mostly Cloudy
4:56 AM 53.6 °F - 46.4 °F 77% 30.33 in 10.0 mi WNW 17.3 mph 25.3 mph N/A   Mostly Cloudy
5:16 AM 53.6 °F - 46.4 °F 77% 30.33 in 10.0 mi WNW 16.1 mph 21.9 mph N/A   Overcast
5:36 AM 53.6 °F - 46.4 °F 77% 30.32 in 10.0 mi WNW 10.4 mph - N/A   Overcast
5:56 AM 53.6 °F - 46.4 °F 77% 30.31 in 10.0 mi NW 12.7 mph 20.7 mph N/A   Overcast
6:16 AM 53.6 °F - 46.4 °F 77% 30.31 in 10.0 mi WNW 17.3 mph 21.9 mph N/A   Overcast
6:36 AM 53.6 °F - 46.4 °F 77% 30.31 in 10.0 mi WNW 18.4 mph 25.3 mph N/A   Overcast
6:56 AM 51.8 °F - 46.4 °F 82% 30.32 in 10.0 mi West 19.6 mph 25.3 mph N/A   Overcast
7:16 AM 51.8 °F - 46.4 °F 82% 30.31 in 10.0 mi West 17.3 mph 25.3 mph N/A   Overcast
7:36 AM 51.8 °F - 46.4 °F 82% 30.32 in 10.0 mi West 17.3 mph 25.3 mph N/A   Overcast
7:56 AM 51.8 °F - 46.4 °F 82% 30.31 in 10.0 mi WNW 16.1 mph 24.2 mph N/A   Overcast
8:16 AM 50.0 °F - 46.4 °F 87% 30.30 in 10.0 mi WNW 9.2 mph 17.3 mph N/A   Overcast
8:36 AM 51.8 °F - 46.4 °F 82% 30.31 in 10.0 mi WNW 11.5 mph 16.1 mph N/A   Overcast
8:56 AM 51.8 °F - 46.4 °F 82% 30.31 in 10.0 mi WNW 12.7 mph 24.2 mph N/A   Mostly Cloudy
9:16 AM 53.6 °F - 46.4 °F 77% 30.30 in 10.0 mi WNW 11.5 mph 21.9 mph N/A   Partly Cloudy
9:36 AM 53.6 °F - 46.4 °F 77% 30.29 in 10.0 mi WNW 13.8 mph 23.0 mph N/A   Clear
9:56 AM 55.4 °F - 46.4 °F 72% 30.29 in 10.0 mi WNW 15.0 mph 19.6 mph N/A   Scattered Clouds
10:16 AM 55.4 °F - 46.4 °F 72% 30.30 in 10.0 mi WNW 11.5 mph 21.9 mph N/A   Mostly Cloudy
10:36 AM 51.8 °F - 46.4 °F 82% 30.30 in 10.0 mi WNW 11.5 mph 18.4 mph N/A   Overcast
10:56 AM 51.8 °F - 46.4 °F 82% 30.31 in 10.0 mi NW 12.7 mph 21.9 mph N/A   Overcast
11:16 AM 51.8 °F - 46.4 °F 82% 30.30 in 10.0 mi WNW 11.5 mph 21.9 mph N/A   Overcast
11:36 AM 53.6 °F - 46.4 °F 77% 30.29 in 10.0 mi WNW 13.8 mph 19.6 mph N/A   Overcast
11:56 AM 53.6 °F - 46.4 °F 77% 30.28 in 10.0 mi WNW 9.2 mph - N/A   Overcast
12:16 PM 53.6 °F - 48.2 °F 82% 30.28 in 10.0 mi WNW 13.8 mph 20.7 mph N/A   Overcast
12:36 PM 53.6 °F - 48.2 °F 82% 30.28 in 10.0 mi WNW 11.5 mph 20.7 mph N/A   Overcast
12:56 PM 53.6 °F - 46.4 °F 77% 30.27 in 10.0 mi NW 12.7 mph 21.9 mph N/A   Overcast
1:16 PM 51.8 °F - 46.4 °F 82% 30.26 in 10.0 mi NW 15.0 mph 19.6 mph N/A   Overcast
1:36 PM 51.8 °F - 46.4 °F 82% 30.25 in 10.0 mi WNW 11.5 mph 25.3 mph N/A   Overcast
1:56 PM 51.8 °F - 46.4 °F 82% 30.25 in 10.0 mi WNW 13.8 mph 23.0 mph N/A   Overcast
2:16 PM 53.6 °F - 46.4 °F 77% 30.24 in 10.0 mi NW 16.1 mph 21.9 mph N/A   Overcast
2:36 PM 53.6 °F - 46.4 °F 77% 30.24 in 10.0 mi NW 19.6 mph 25.3 mph N/A   Overcast
2:56 PM 53.6 °F - 46.4 °F 77% 30.25 in 10.0 mi WNW 15.0 mph 20.7 mph N/A   Overcast
3:16 PM 51.8 °F - 46.4 °F 82% 30.25 in 10.0 mi WNW 16.1 mph 25.3 mph N/A   Mostly Cloudy
3:36 PM 50.0 °F - 46.4 °F 87% 30.26 in 10.0 mi West 19.6 mph 24.2 mph N/A   Overcast
3:56 PM 50.0 °F - 44.6 °F 82% 30.26 in 10.0 mi West 17.3 mph 28.8 mph N/A   Overcast
4:16 PM 50.0 °F - 44.6 °F 82% 30.25 in 10.0 mi West 24.2 mph 35.7 mph N/A   Mostly Cloudy
4:36 PM 48.2 °F - 44.6 °F 87% 30.25 in 10.0 mi West 24.2 mph 32.2 mph N/A   Overcast
4:56 PM 48.2 °F - 42.8 °F 82% 30.26 in 10.0 mi West 25.3 mph 33.4 mph N/A   Overcast
5:16 PM 48.2 °F - 42.8 °F 82% 30.26 in 10.0 mi West 20.7 mph 33.4 mph N/A   Overcast
5:36 PM 48.2 °F - 42.8 °F 82% 30.26 in 9.0 mi WNW 23.0 mph 31.1 mph N/A   Overcast
5:56 PM 48.2 °F - 42.8 °F 82% 30.26 in 10.0 mi West 19.6 mph 28.8 mph N/A   Overcast
6:16 PM 48.2 °F - 42.8 °F 82% 30.25 in 10.0 mi WNW 20.7 mph 26.5 mph N/A   Overcast
6:36 PM 48.2 °F - 42.8 °F 82% 30.25 in 10.0 mi West 21.9 mph 28.8 mph N/A   Overcast
6:56 PM 46.4 °F 39.0 °F 42.8 °F 87% 30.24 in 10.0 mi WNW 19.6 mph 26.5 mph N/A   Overcast
7:16 PM 46.4 °F 38.7 °F 42.8 °F 87% 30.24 in 10.0 mi WNW 20.7 mph 28.8 mph N/A   Overcast
7:36 PM 46.4 °F 39.2 °F 42.8 °F 87% 30.23 in 10.0 mi WNW 18.4 mph 27.6 mph N/A   Overcast
7:56 PM 48.2 °F - 42.8 °F 82% 30.24 in 10.0 mi West 16.1 mph 25.3 mph N/A   Overcast
8:16 PM 48.2 °F - 42.8 °F 82% 30.23 in 10.0 mi West 13.8 mph 19.6 mph N/A   Overcast
8:36 PM 46.4 °F 40.7 °F 42.8 °F 87% 30.23 in 10.0 mi WNW 12.7 mph 20.7 mph N/A   Overcast
8:56 PM 48.2 °F - 42.8 °F 82% 30.23 in 9.0 mi West 13.8 mph 19.6 mph N/A   Mostly Cloudy
9:16 PM 46.4 °F 41.5 °F 44.6 °F 93% 30.23 in 3.0 mi WNW 10.4 mph - N/A   Partly Cloudy
9:56 PM 46.4 °F 41.1 °F 44.6 °F 93% 30.24 in 8.0 mi West 11.5 mph - 0.01 in   Mostly Cloudy
10:16 PM 46.4 °F 41.1 °F 44.6 °F 93% 30.23 in 10.0 mi West 11.5 mph - N/A   Overcast
10:36 PM 46.4 °F 40.7 °F 42.8 °F 87% 30.23 in 10.0 mi WNW 12.7 mph - N/A   Overcast
10:56 PM 46.4 °F 41.1 °F 44.6 °F 93% 30.23 in 9.0 mi WNW 11.5 mph - N/A   Overcast
11:16 PM 46.4 °F 41.1 °F 44.6 °F 93% 30.23 in 10.0 mi WNW 11.5 mph 16.1 mph N/A   Overcast
11:36 PM 46.4 °F 41.1 °F 42.8 °F 87% 30.22 in 10.0 mi WNW 11.5 mph - N/A   Overcast
11:56 PM 46.4 °F 40.1 °F 42.8 °F 87% 30.22 in 10.0 mi WNW 15.0 mph - N/A   Overcast